839  
ASUS43 KBIS 210402  
RWRND  
 
NORTH DAKOTA REGIONAL WEATHER ROUNDUP  
NATIONAL WEATHER SERVICE BISMARCK ND  
1000 PM CST THU FEB 20 2020  
 
NOTE: "FAIR" INDICATES FEW OR NO CLOUDS BELOW 12,000 FEET WITH NO  
SIGNIFICANT WEATHER AND/OR S TO VISIBILITY
.  
 
 
NDZ001>003-009>011-017-210500-  
NORTHWEST NORTH DAKOTA  
 
CITY SKY/WX TMP DP RH WIND PRES REMARKS
 
WILLISTON FAIR 22 14 71 SW12 30.04F WCI 10  
MINOT CLEAR 29 17 61 SW18G29 30.05F WCI 16  
MINOT AFB CLEAR 28 17 61 SW10 30.04F WCI 19  

 
 
NDZ018>021-031>035-040>046-210500-  
SOUTHWEST NORTH DAKOTA  
 
CITY SKY/WX TMP DP RH WIND PRES REMARKS
 
BISMARCK CLEAR 26 16 65 SW9 30.21F WCI 17  
DICKINSON CLEAR 27 14 58 SW22 30.11F WCI 13  
GARRISON N/A 22 15 75 SW6 30.13F WCI 14  
HETTINGER ARPT CLEAR 25 13 60 SW6 30.20F WCI 18  

 
 
NDZ004>008-012>016-024-026-027-054-210500-  
NORTHEAST NORTH DAKOTA  
 
CITY SKY/WX TMP DP RH WIND PRES REMARKS
 
GRAND FORKS CLEAR 11 5 77 S16 30.21F WCI -6  
GRND FRKS AFB CLEAR 16 9 73 S10 30.19F WCI 3  
DEVILS LAKE CLEAR 20 13 74 SW14 30.13F WCI 7  

 
 
NDZ022-023-025-028>030-036>039-047>053-210500-  
SOUTHEAST NORTH DAKOTA  
 
CITY SKY/WX TMP DP RH WIND PRES REMARKS
 
FARGO CLEAR 13 8 81 S13 30.32F WCI -2  
JAMESTOWN CLEAR 14 9 80 S14 30.22F WCI -1  

 
 
 
 
CLICK HERE TO GO TO PREVIOUS BULLETINS.

The Nexlab ND Page Main Text Page